Wind_Speed
40 40 40 40 42 42 40 36 33 31 30 29 29 28 26 25 24 22 21 19 19 18 17 16 15 15 14 13 13 12 11 10 10 9 9 9 8 8 8 8 8 9 9 10 10 10 10 10 11
41 42 43 44 45 44 41 37 34 32 32 31 31 30 29 27 26 24 23 21 21 20 19 18 17 17 16 15 15 14 13 12 12 11 10 10 9 9 9 10 10 10 10 10 11 11 11 11 12
43 44 45 47 47 45 41 38 36 35 35 34 34 32 31 29 27 26 25 24 23 22 21 20 19 18 18 17 17 16 15 14 13 13 12 11 11 11 11 11 11 11 11 11 12 12 12 13 13
46 46 48 49 48 44 42 40 39 38 38 37 36 35 34 31 29 28 27 26 25 24 23 22 21 20 20 19 18 17 16 16 15 14 14 13 13 12 12 12 12 12 12 12 13 13 13 14 14
48 50 52 51 48 45 43 41 41 40 40 39 38 37 35 33 31 30 29 28 27 26 25 24 22 22 21 21 20 19 18 17 16 16 15 15 14 14 14 14 14 14 14 14 14 15 15 15 15
50 52 54 52 48 45 44 43 43 42 42 41 40 39 38 35 33 32 31 30 29 28 27 26 24 24 23 22 22 21 20 19 18 18 17 16 16 15 15 15 15 15 15 15 16 16 17 17 17
51 53 53 51 49 47 45 45 44 44 43 43 42 41 39 38 36 34 33 32 31 30 29 28 27 26 25 25 24 23 22 21 20 20 19 18 18 17 17 17 17 17 17 17 17 18 18 18 18
52 53 54 52 50 48 46 46 46 46 44 44 44 42 41 40 38 37 36 35 34 32 31 30 29 29 28 27 26 25 24 23 23 22 21 20 20 19 19 19 18 19 19 19 19 19 19 19 20
53 55 54 52 50 48 47 47 47 47 47 46 45 44 43 42 41 40 38 37 35 34 33 32 31 31 30 29 28 27 26 26 25 24 24 23 22 21 21 20 20 20 20 21 21 21 21 21 21
51 54 53 52 50 50 49 49 49 49 48 47 46 45 44 43 43 42 41 39 37 35 34 34 34 33 32 31 30 29 28 27 27 26 26 25 24 23 23 22 22 22 22 22 22 22 22 22 22
50 51 51 51 51 51 51 50 50 49 49 47 46 46 46 44 44 43 42 41 39 38 37 36 35 34 33 33 32 31 30 29 29 28 27 27 26 25 24 24 24 24 24 24 24 24 23 23 24
46 47 49 50 51 51 52 51 51 49 48 47 47 47 47 46 45 43 43 43 41 40 39 38 37 36 35 34 34 33 32 31 31 30 30 29 28 27 26 26 26 25 25 25 25 25 25 25 25
42 44 46 49 50 50 51 51 51 50 48 48 48 47 47 47 46 45 45 44 43 41 41 40 39 38 37 36 35 35 34 33 32 32 31 31 30 29 28 28 28 27 27 26 26 26 26 26 26
39 41 43 46 48 49 50 50 51 50 48 49 48 47 47 47 46 46 45 45 44 43 43 42 40 39 39 38 37 36 35 34 34 33 33 32 31 31 30 30 30 29 28 28 28 27 27 27 28
36 38 40 43 46 47 48 50 51 50 49 49 48 48 47 46 47 46 46 45 45 45 44 43 42 41 40 39 38 37 36 35 35 34 34 34 34 33 32 32 31 31 30 29 29 29 29 29 29
33 35 37 38 41 45 47 48 49 49 49 49 48 48 48 47 47 47 46 46 46 45 45 44 43 43 41 40 39 38 37 37 36 36 35 35 35 35 34 33 33 32 32 31 30 30 30 30 31
32 33 34 35 37 41 45 46 46 47 48 48 48 48 48 48 48 47 47 46 46 46 45 45 44 43 43 41 40 40 39 38 38 37 36 36 36 35 35 35 35 34 33 32 32 32 32 32 32
29 30 32 32 34 38 41 42 44 46 47 47 47 47 48 48 48 47 47 47 46 46 46 45 44 44 44 43 42 40 40 40 39 39 38 38 38 36 35 35 35 35 34 34 34 34 34 34 34
27 28 30 31 32 35 39 40 41 43 44 46 47 47 47 48 47 48 48 48 47 46 46 45 45 44 44 44 44 42 41 41 40 40 40 39 38 37 36 36 36 35 35 35 35 35 35 34 35
25 27 29 30 32 34 37 39 40 42 42 44 46 47 47 47 47 47 47 47 46 45 46 45 45 45 45 44 44 43 43 43 41 41 40 40 39 38 37 36 35 35 36 36 35 36 36 36 36
24 25 27 29 32 34 36 38 39 40 41 43 45 46 47 47 47 47 46 46 46 46 45 45 45 45 45 45 45 45 45 44 42 41 40 40 40 39 38 37 36 36 36 36 36 36 36 37 37
22 24 25 27 31 34 36 38 38 39 40 42 43 44 45 46 46 46 46 46 45 46 46 46 47 46 45 45 45 45 45 44 44 43 41 40 40 39 39 38 37 37 37 37 37 37 37 37 37
20 22 24 25 28 32 34 36 38 38 39 40 42 43 45 45 46 45 45 46 46 46 47 47 47 48 47 46 45 45 45 45 44 45 44 42 39 38 38 38 38 38 39 39 38 37 38 38 38
18 20 21 23 25 30 31 34 36 36 36 38 39 41 43 44 44 44 45 45 46 46 47 47 46 47 47 47 47 45 45 45 45 44 44 42 41 39 38 39 39 39 40 39 39 38 38 38 38
16 18 18 21 24 27 28 31 33 33 33 36 38 39 41 43 44 44 45 45 46 46 46 46 46 46 47 47 47 46 46 45 45 44 44 43 42 42 41 41 40 40 40 40 39 38 38 38 38
16 17 18 20 22 24 26 28 29 31 32 33 35 37 39 40 42 43 44 44 45 46 46 46 46 46 46 46 46 46 45 45 44 44 44 43 43 43 43 42 41 41 40 40 39 39 39 39 39
15 17 18 19 21 22 23 24 27 28 30 32 34 35 36 38 40 41 42 43 44 45 45 46 45 45 45 45 45 45 45 45 44 43 43 44 45 44 43 43 42 41 40 39 39 39 39 39 39
15 17 18 20 20 22 21 22 23 23 25 28 30 33 34 35 38 39 40 41 42 44 44 45 45 45 44 44 45 45 44 45 45 44 44 44 44 44 44 44 43 42 41 40 40 40 40 39 39
15 16 18 19 21 22 22 22 22 22 23 26 29 31 33 34 35 37 38 39 40 42 42 43 44 44 43 44 44 45 46 46 45 45 44 44 45 44 44 43 42 42 42 41 41 40 40 40 40
16 17 18 20 21 22 22 22 22 21 22 25 28 29 31 32 34 35 36 38 39 41 41 42 43 44 44 44 45 45 45 46 45 45 44 44 44 44 43 42 42 41 41 41 41 40 41 40 40
Wind_Direction
244 243 242 242 242 242 243 243 242 240 240 240 241 242 242 241 241 241 239 237 238 238 238 238 239 239 240 241 242 243 247 252 255 257 261 266 270 275 282 288 291 295 299 301 303 303 305 305 306
243 243 242 242 242 243 243 243 242 240 240 239 240 240 240 239 239 239 239 238 237 238 237 238 239 240 241 242 243 245 248 252 256 258 261 265 269 274 279 285 289 292 295 297 299 301 301 301 301
243 243 243 242 243 243 245 244 242 240 239 239 239 240 239 238 237 238 238 238 238 238 239 240 240 241 242 243 244 246 248 252 257 259 261 264 267 272 277 283 288 290 293 296 298 299 299 300 300
242 243 243 244 244 245 245 243 242 240 239 238 239 239 239 238 237 237 237 238 239 239 239 240 241 242 242 243 244 245 247 251 255 258 261 264 267 271 275 280 286 289 290 293 295 297 298 299 299
243 244 244 245 245 245 244 243 241 240 239 238 238 239 239 237 237 236 237 238 239 239 239 239 241 242 243 243 244 246 247 250 253 257 260 263 266 270 274 278 283 287 289 291 292 294 295 295 296
243 244 245 245 245 245 244 242 240 239 238 238 238 237 237 236 236 236 237 237 238 239 240 240 242 243 243 244 245 247 248 249 252 255 258 262 265 268 272 276 281 285 287 290 291 293 294 294 294
244 244 244 246 245 244 242 241 240 238 237 237 237 237 236 236 236 236 237 238 238 239 240 241 242 244 245 246 246 247 248 250 252 254 257 260 263 266 269 274 279 283 286 289 291 292 293 293 293
245 245 244 244 244 242 240 239 238 238 236 236 236 235 234 235 235 236 237 237 238 239 240 242 242 243 245 246 247 247 248 250 253 255 257 259 262 265 268 272 277 281 284 287 289 290 291 292 292
244 244 244 243 243 241 239 238 236 236 236 235 235 235 234 234 235 236 236 237 238 239 240 242 243 244 244 246 247 248 249 251 253 255 258 260 261 264 267 271 276 279 282 285 287 288 288 289 290
245 245 244 242 241 239 238 237 235 235 234 234 235 235 235 234 235 236 236 237 238 240 241 242 243 244 245 246 247 248 249 250 253 255 257 260 262 264 267 270 274 277 280 283 285 287 287 287 289
246 245 242 241 240 238 236 235 235 234 234 234 235 235 236 235 235 236 237 238 238 239 240 241 243 243 245 246 247 248 249 250 252 254 256 258 260 262 265 268 271 275 278 281 283 285 286 286 287
247 244 241 240 238 236 235 235 234 234 234 234 234 234 234 234 234 235 236 238 238 239 240 240 242 243 244 245 247 249 249 250 252 253 255 257 259 261 264 267 270 273 277 279 281 283 284 285 287
247 245 241 238 236 235 234 233 233 233 233 232 233 233 233 234 234 235 236 237 238 239 240 241 242 243 244 245 246 247 249 250 252 253 254 256 258 260 263 265 269 272 275 277 280 282 282 284 285
246 243 240 238 235 232 231 231 232 232 232 231 232 232 233 234 234 235 236 237 238 239 240 241 242 242 243 245 245 247 248 250 252 253 254 255 257 259 262 265 268 271 273 275 277 279 281 283 284
244 241 239 238 234 232 231 230 230 231 230 230 231 231 232 233 234 236 237 237 238 239 240 240 241 242 243 244 245 246 248 250 252 253 254 255 257 259 261 264 267 269 271 273 275 277 279 280 282
241 240 238 237 235 231 230 230 230 230 230 229 230 231 231 232 234 236 237 238 238 239 239 240 240 241 242 244 244 245 247 249 251 252 253 255 257 259 260 263 266 269 270 271 273 275 276 278 280
240 239 238 236 235 232 230 230 228 229 229 228 229 230 232 232 234 236 236 237 237 238 238 239 240 241 242 243 244 245 246 248 250 251 253 255 256 258 259 262 265 268 270 270 271 273 275 277 280
241 241 238 235 234 233 230 229 228 229 230 229 228 230 231 233 234 235 235 235 236 237 237 238 239 241 242 243 244 245 246 247 249 251 253 255 256 257 259 262 265 267 268 270 270 271 274 276 279
243 240 237 236 235 234 230 229 228 228 230 229 229 230 231 233 234 235 235 235 236 237 238 238 239 241 242 242 244 245 247 247 249 251 252 254 254 256 258 261 264 265 267 269 270 271 273 275 278
242 241 240 238 235 234 231 230 230 229 231 231 230 231 231 233 234 235 236 235 236 238 237 237 239 240 242 243 243 244 245 246 248 250 251 253 253 255 258 261 262 264 266 267 269 272 273 275 278
241 242 243 240 237 234 233 231 231 230 231 231 231 231 232 233 234 235 236 236 237 238 238 237 238 239 241 242 244 244 244 245 246 248 251 253 253 255 257 259 261 263 265 268 269 271 274 276 278
244 243 241 240 238 237 236 236 232 231 232 232 232 233 233 234 235 237 237 237 237 238 239 239 240 240 240 241 243 244 245 247 248 248 250 251 252 254 256 258 260 262 265 267 269 272 275 276 279
245 243 242 244 241 240 239 240 234 234 236 234 234 234 234 235 235 237 238 238 238 239 240 240 241 240 240 241 242 244 245 246 247 249 249 250 252 253 255 256 259 263 265 267 270 272 274 277 279
245 245 244 244 243 241 240 243 239 238 239 238 236 235 235 234 235 237 238 240 240 240 241 241 241 241 241 242 242 244 246 246 247 249 249 250 251 252 255 257 260 263 265 266 268 272 274 277 278
243 243 244 244 242 243 242 244 242 241 241 239 237 236 235 235 236 238 239 241 241 242 241 241 241 241 242 243 243 244 245 247 248 249 250 251 252 254 256 258 260 263 265 266 268 271 274 276 278
247 246 246 247 247 245 243 245 245 244 242 239 238 236 236 237 238 239 240 241 242 242 242 242 241 241 241 242 242 243 245 246 248 249 250 251 252 255 256 258 260 262 265 266 268 271 273 276 278
250 248 250 253 253 250 247 247 247 247 243 241 239 237 237 238 239 240 241 241 241 242 242 242 241 241 241 242 243 243 244 246 248 250 251 252 253 255 257 258 261 262 264 265 268 271 273 276 277
256 253 253 255 255 255 253 250 251 252 247 242 240 239 237 239 240 240 241 242 242 242 242 242 242 241 242 242 243 242 244 246 249 250 252 254 255 256 257 258 260 262 262 264 267 270 272 274 276
255 254 255 255 253 255 258 252 256 257 252 245 242 242 241 241 240 239 240 242 242 241 241 241 242 242 242 243 244 244 244 246 248 250 252 254 254 256 258 259 260 261 262 264 267 269 272 274 276
259 256 253 255 256 257 261 259 258 258 254 250 245 244 244 243 242 241 241 243 243 242 242 242 243 243 243 244 245 245 246 246 248 251 253 255 255 256 257 258 259 260 262 265 267 270 271 273 275
Height
5798 5801 5804 5806 5808 5809 5813 5820 5825 5828 5831 5833 5835 5837 5840 5843 5846 5850 5851 5851 5852 5854 5856 5857 5858 5860 5861 5862 5864 5865 5866 5866 5867 5868 5868 5869 5870 5870 5871 5871 5871 5872 5872 5871 5871 5871 5871 5871 5870
5790 5792 5795 5797 5798 5801 5808 5814 5819 5823 5825 5827 5829 5832 5834 5837 5841 5844 5846 5847 5849 5851 5852 5854 5856 5857 5858 5860 5861 5862 5863 5864 5865 5866 5866 5867 5868 5868 5869 5869 5870 5870 5870 5869 5869 5869 5869 5868 5868
5781 5783 5786 5787 5790 5796 5802 5809 5813 5816 5819 5821 5824 5826 5829 5833 5836 5839 5841 5843 5846 5848 5849 5851 5852 5854 5855 5857 5858 5859 5861 5862 5863 5863 5864 5865 5866 5866 5867 5867 5867 5868 5868 5867 5867 5867 5866 5866 5866
5771 5774 5776 5778 5783 5790 5796 5802 5805 5808 5811 5814 5817 5820 5824 5828 5831 5834 5836 5839 5841 5843 5845 5847 5849 5850 5852 5853 5855 5856 5858 5859 5860 5861 5862 5863 5863 5864 5864 5865 5865 5865 5865 5865 5865 5864 5864 5864 5863
5760 5763 5765 5768 5776 5783 5788 5793 5796 5800 5804 5807 5810 5814 5818 5822 5825 5828 5831 5834 5836 5839 5841 5843 5845 5847 5848 5850 5852 5853 5854 5856 5857 5858 5859 5860 5860 5861 5862 5862 5862 5862 5862 5862 5862 5862 5861 5861 5860
5749 5751 5755 5760 5768 5775 5780 5784 5787 5792 5796 5799 5803 5807 5811 5815 5819 5822 5825 5828 5831 5834 5836 5838 5841 5843 5844 5846 5848 5849 5851 5852 5853 5855 5855 5856 5857 5858 5859 5859 5859 5859 5859 5859 5859 5859 5858 5858 5857
5738 5741 5744 5751 5758 5764 5770 5774 5778 5782 5787 5792 5795 5799 5804 5809 5813 5816 5819 5822 5825 5828 5831 5833 5836 5838 5840 5842 5844 5845 5847 5848 5850 5851 5852 5853 5854 5854 5855 5856 5856 5856 5856 5856 5856 5855 5855 5854 5854
5725 5729 5733 5740 5746 5754 5760 5763 5768 5772 5778 5782 5787 5791 5797 5802 5805 5809 5812 5816 5819 5822 5825 5828 5830 5833 5835 5837 5839 5841 5842 5844 5845 5847 5848 5849 5850 5850 5851 5852 5852 5852 5852 5852 5852 5851 5851 5850 5850
5713 5717 5721 5730 5736 5743 5748 5752 5758 5762 5768 5773 5778 5784 5789 5793 5797 5802 5805 5809 5813 5816 5819 5822 5825 5827 5829 5832 5834 5836 5837 5839 5840 5842 5843 5844 5845 5846 5847 5847 5848 5848 5848 5848 5848 5847 5847 5846 5846
5700 5704 5712 5720 5725 5731 5736 5741 5747 5752 5758 5764 5769 5775 5780 5784 5789 5794 5799 5802 5806 5810 5813 5816 5819 5821 5824 5826 5828 5830 5832 5834 5835 5837 5838 5839 5841 5841 5842 5843 5843 5843 5843 5843 5843 5843 5842 5842 5841
5688 5694 5701 5707 5713 5718 5724 5729 5736 5742 5749 5756 5762 5767 5772 5777 5781 5786 5791 5795 5799 5802 5806 5809 5812 5815 5817 5820 5822 5824 5826 5828 5830 5831 5833 5834 5835 5836 5837 5838 5838 5838 5839 5839 5838 5838 5838 5837 5837
5678 5683 5688 5694 5700 5706 5712 5718 5725 5732 5741 5747 5752 5757 5762 5768 5773 5778 5783 5787 5791 5795 5798 5801 5804 5807 5810 5813 5815 5817 5820 5822 5823 5825 5827 5828 5830 5831 5832 5832 5833 5833 5833 5833 5833 5833 5832 5832 5832
5667 5672 5676 5682 5688 5694 5700 5707 5714 5723 5730 5736 5742 5747 5753 5759 5765 5770 5774 5779 5783 5787 5790 5794 5797 5800 5803 5806 5808 5810 5813 5815 5817 5819 5820 5822 5823 5825 5826 5827 5827 5828 5828 5828 5828 5827 5827 5827 5826
5658 5661 5665 5670 5677 5683 5690 5697 5704 5713 5720 5726 5732 5738 5744 5750 5756 5761 5766 5770 5774 5778 5782 5786 5789 5792 5795 5798 5801 5803 5806 5808 5810 5812 5813 5815 5817 5818 5819 5820 5821 5822 5822 5822 5822 5822 5821 5821 5821
5648 5652 5656 5661 5667 5673 5680 5687 5694 5703 5710 5716 5723 5729 5735 5740 5746 5752 5757 5761 5766 5770 5773 5777 5781 5784 5787 5790 5793 5796 5798 5801 5803 5805 5806 5808 5810 5811 5813 5814 5814 5815 5815 5816 5816 5816 5815 5815 5815
5640 5643 5647 5653 5658 5664 5671 5678 5686 5692 5699 5706 5713 5719 5725 5731 5737 5742 5747 5752 5756 5761 5765 5769 5772 5775 5779 5782 5785 5788 5790 5793 5795 5797 5799 5801 5802 5804 5805 5807 5807 5808 5809 5809 5809 5809 5809 5809 5808
5632 5636 5641 5647 5651 5656 5662 5669 5677 5683 5689 5697 5703 5709 5716 5721 5727 5733 5738 5742 5747 5751 5756 5760 5763 5767 5770 5774 5776 5779 5782 5785 5787 5789 5791 5793 5795 5796 5798 5799 5800 5801 5802 5802 5803 5803 5803 5802 5802
5627 5631 5635 5640 5645 5649 5654 5661 5668 5674 5680 5688 5694 5700 5706 5712 5718 5723 5728 5733 5737 5742 5746 5750 5754 5758 5761 5765 5767 5770 5773 5776 5779 5781 5783 5785 5787 5789 5790 5792 5792 5793 5794 5795 5795 5796 5796 5795 5795
5623 5626 5630 5635 5639 5642 5647 5653 5660 5666 5672 5679 5685 5692 5698 5703 5708 5713 5718 5723 5728 5732 5736 5741 5745 5749 5752 5755 5759 5762 5765 5768 5770 5772 5774 5776 5778 5780 5782 5784 5785 5786 5787 5787 5788 5788 5788 5788 5787
5618 5621 5625 5629 5632 5636 5640 5646 5652 5658 5664 5670 5677 5683 5689 5694 5699 5704 5709 5713 5718 5723 5727 5731 5735 5739 5743 5746 5750 5753 5756 5759 5761 5763 5766 5768 5770 5772 5774 5775 5777 5778 5779 5780 5780 5780 5780 5780 5780
5614 5617 5620 5623 5626 5629 5634 5639 5646 5651 5656 5662 5668 5674 5680 5685 5690 5695 5700 5705 5709 5714 5718 5722 5726 5730 5733 5737 5740 5743 5746 5749 5752 5755 5757 5759 5761 5763 5765 5767 5768 5770 5771 5771 5772 5772 5772 5772 5771
5610 5613 5615 5618 5621 5624 5628 5632 5639 5644 5649 5655 5661 5666 5671 5676 5681 5685 5690 5695 5700 5704 5708 5712 5715 5719 5723 5727 5730 5734 5737 5740 5743 5746 5748 5750 5752 5754 5756 5758 5759 5761 5762 5763 5764 5764 5764 5763 5763
5607 5609 5612 5614 5616 5619 5623 5626 5633 5637 5642 5648 5653 5658 5662 5667 5672 5676 5681 5685 5690 5693 5697 5701 5705 5709 5713 5717 5720 5723 5727 5730 5733 5736 5738 5740 5743 5745 5747 5749 5750 5752 5753 5754 5755 5755 5755 5755 5755
5604 5606 5608 5609 5611 5614 5618 5621 5626 5632 5637 5641 5645 5649 5654 5658 5663 5667 5671 5675 5680 5683 5687 5691 5695 5699 5702 5706 5710 5713 5716 5719 5723 5726 5728 5731 5734 5736 5738 5740 5742 5743 5744 5745 5746 5746 5746 5746 5746
5601 5603 5604 5605 5606 5609 5613 5615 5621 5626 5629 5633 5637 5641 5645 5650 5654 5658 5662 5666 5670 5673 5677 5681 5685 5689 5692 5696 5700 5703 5706 5709 5713 5716 5718 5721 5724 5727 5729 5730 5732 5734 5735 5736 5737 5737 5737 5737 5737
5597 5600 5601 5601 5602 5606 5608 5611 5617 5619 5622 5625 5629 5633 5637 5641 5645 5649 5652 5656 5660 5664 5667 5671 5675 5679 5683 5686 5690 5693 5696 5700 5703 5706 5709 5712 5715 5717 5719 5721 5723 5724 5726 5727 5728 5728 5728 5728 5728
5595 5596 5598 5599 5600 5602 5604 5608 5611 5613 5616 5619 5622 5625 5629 5633 5637 5640 5643 5647 5650 5654 5657 5661 5665 5669 5673 5676 5680 5684 5687 5690 5693 5696 5699 5702 5705 5707 5710 5711 5713 5715 5716 5718 5718 5719 5719 5719 5719
5593 5594 5595 5596 5597 5598 5601 5603 5606 5608 5609 5612 5615 5618 5621 5625 5628 5631 5634 5638 5641 5644 5648 5651 5655 5659 5663 5666 5670 5674 5677 5680 5684 5687 5690 5692 5695 5697 5700 5702 5704 5706 5707 5708 5709 5710 5710 5710 5709
5590 5591 5592 5593 5594 5595 5596 5602 5601 5602 5603 5605 5608 5610 5613 5616 5619 5622 5625 5629 5632 5635 5638 5642 5645 5649 5653 5657 5660 5664 5667 5671 5674 5677 5680 5682 5685 5687 5690 5692 5694 5696 5697 5698 5699 5700 5701 5700 5700
5586 5587 5588 5590 5591 5591 5592 5598 5595 5596 5597 5599 5601 5603 5606 5608 5611 5614 5617 5620 5623 5626 5630 5633 5636 5640 5644 5647 5651 5654 5658 5661 5664 5668 5670 5673 5675 5677 5679 5682 5684 5686 5687 5689 5690 5691 5691 5691 5690